Location: Avon
(37.7514°N, 90.2235°W)
Time: 17:39:37
(UTC+00:00)

A-11 Canister half - Pass Details

Date: 10 November 2025
Orbit: 1526 x 1681 km, 47.3° (Epoch: 06 December)

Event Time Altitude Azimuth Distance (km) Brightness Sun altitude
Exits shadow 08:17:20 11° 138° (SE) 3,641 11.1 -50.9°
Drops below altitude 10° 08:17:28 10° 138° (SE) 3,683 11.1 -50.8°
Sets 08:20:31 0° 136° (SE) 4,670 11.7 -50.3°
